Wetterdaten Herbst 2002

Datum T max T min Regen
01.09.2002 19.3 °C 15.6 °C 0.4 mm
02.09.2002 23.6 °C 11.8 °C 1.1 mm
03.09.2002 22.9 °C 10.2 °C 0 mm
04.09.2002 25.6 °C 12.9 °C 0 mm
05.09.2002 24.7 °C 14.5 °C 0 mm
06.09.2002 25.4 °C 11 °C 0 mm
07.09.2002 26 °C 14 °C 0.7 mm
08.09.2002 25.5 °C 12.2 °C 0 mm
09.09.2002 27.5 °C 12.8 °C 0 mm
10.09.2002 20.4 °C 13.1 °C 7.6 mm
11.09.2002 20.5 °C 12.2 °C 0 mm
12.09.2002 22 °C 12 °C 0 mm
13.09.2002 19.9 °C 7.4 °C 0 mm
14.09.2002 21.3 °C 6 °C 0 mm
15.09.2002 20 °C 10 °C 0 mm
16.09.2002 19.6 °C 6.7 °C 0 mm
17.09.2002 19.4 °C 5.4 °C 0 mm
18.09.2002 21.3 °C 6.1 °C 0 mm
19.09.2002 22 °C 10.5 °C 0 mm
20.09.2002 19.2 °C 15.8 °C 12 mm
24.09.2002 10.1 °C 6.3 °C 3.9 mm
25.09.2002 10.8 °C 5.4 °C 7.9 mm
26.09.2002 12.6 °C 7.5 °C 15.1 mm
27.09.2002 16.3 °C 7.6 °C 3.6 mm
28.09.2002 14.3 °C 2.6 °C 0.4 mm
29.09.2002 16.1 °C 2.4 °C 0 mm
30.09.2002 16.8 °C 2.1 °C 0 mm
01.10.2002 18.3 °C 3 °C 0 mm
02.10.2002 18.4 °C 5 °C 0 mm
03.10.2002 20.3 °C 8.5 °C 0 mm
04.10.2002 14.2 °C 12.4 °C 3.6 mm
06.10.2002 13.4 °C 10 °C 0 mm
07.10.2002 13.9 °C 4.6 °C 0 mm
08.10.2002 14.2 °C 2.1 °C 0 mm
09.10.2002 14.8 °C 1.4 °C 0 mm
10.10.2002 15 °C 4.1 °C 0 mm
11.10.2002 12.6 °C 8.3 °C 0 mm
12.10.2002 11.5 °C 7.4 °C 0.4 mm
13.10.2002 14 °C 5.8 °C 0.4 mm
14.10.2002 17.1 °C 7.6 °C 1.1 mm
15.10.2002 16.8 °C 8.7 °C 4.7 mm
16.10.2002 20.9 °C 12.7 °C 8.6 mm
17.10.2002 14.4 °C 9.6 °C 5 mm
18.10.2002 12.3 °C 5.6 °C 6.8 mm
19.10.2002 11.8 °C 2.2 °C 2.2 mm
20.10.2002 11.5 °C -0.1 °C 0 mm
21.10.2002 12.9 °C 5 °C 13.3 mm
22.10.2002 20.3 °C 11.3 °C 1.8 mm
23.10.2002 15.9 °C 6.9 °C 3.2 mm
24.10.2002 13.5 °C 5.6 °C 0.7 mm
25.10.2002 16 °C 7.3 °C 5.4 mm
26.10.2002 16 °C 9.1 °C 4.7 mm
27.10.2002 18.8 °C 9 °C 0 mm
28.10.2002 12.4 °C 3.2 °C 0.4 mm
29.10.2002 13.4 °C 3 °C 0 mm
30.10.2002 13.8 °C 6.5 °C 0.4 mm
31.10.2002 14.7 °C 10.8 °C 2.5 mm
01.11.2002 16.5 °C 11.8 °C 0 mm
02.11.2002 15.1 °C 10.8 °C 8.6 mm
03.11.2002 11.9 °C 10.7 °C 9.4 mm
07.11.2002 6.2 °C 2.7 °C 23.4 mm
08.11.2002 7 °C 4.2 °C 0 mm
13.11.2002 5 °C 4.1 °C 0 mm
14.11.2002 9.6 °C 2.8 °C 4.3 mm
15.11.2002 11.3 °C 7.1 °C 14.4 mm
16.11.2002 11.4 °C 8.2 °C 3.6 mm
17.11.2002 10.5 °C 6.4 °C 0 mm
19.11.2002 9.2 °C 4.2 °C 3.6 mm
20.11.2002 11.8 °C 3.1 °C 0.7 mm
21.11.2002 11.5 °C 2.3 °C 0 mm
22.11.2002 8.9 °C 3.5 °C 6.8 mm
26.11.2002 9.1 °C 7.7 °C 3.6 mm
27.11.2002 11.6 °C 6 °C 1.4 mm
28.11.2002 12.4 °C 4.1 °C 0.7 mm
29.11.2002 10.6 °C 8.1 °C 10.8 mm
*) Messwert für diesen Zeitpunkt noch nicht verfügbar
 Hinweis zur Datenqualität
∅ Temperatur

11.4 °C

Abweichung vom Mittel

+1.2 °C

Niederschlag

208.9 mm

Abweichung vom Mittel

137 %

27.5 °C

Lufttemperatur
09.09.2002

1028 hPa

Luftdruck
29.09.2002

42.4 km/h

Windböen
27.10.2002

208.92001 mm

Niederschlag
 

-0.1 °C

Lufttemperatur
20.10.2002

*) °C

Bodentemperatur 5cm
01.01.1970

989 hPa

Luftdruck
15.11.2002
*) Messwert für diesen Zeitpunkt noch nicht verfügbar
 Hinweis zur Datenqualität